VK4CWL-13 Weather Reports


Display with metric or nautical units.
time (UTC)temp
F
wind
direction
speed
MPH
gust
MPH
rain 1hr
in
rain 24hr
in
rain mn
in
humidity
%
barometer
mb
20260504050730 86 45 4.0 8.0 0.00 0.00 0.00 39 1013.6
20260504045723 85 22 1.0 2.0 0.00 0.00 0.00 41 1013.8
20260504045221 85 90 2.0 5.0 0.00 0.00 0.00 41 1013.8
20260504044718 85 45 2.0 5.0 0.00 0.00 0.00 41 1013.8
20260504044216 85 45 5.0 9.0 0.00 0.00 0.00 40 1013.8
20260504043714 85 90 2.0 7.0 0.00 0.00 0.00 41 1013.9
20260504043212 85 168 3.0 9.0 0.00 0.00 0.00 40 1013.9
20260504042710 85 112 6.0 9.0 0.00 0.00 0.00 41 1014.1
20260504042208 85 90 5.0 7.0 0.00 0.00 0.00 40 1013.9
20260504041705 85 202 1.0 4.0 0.00 0.00 0.00 43 1014.1
20260504041205 84 135 3.0 6.0 0.00 0.00 0.00 42 1014.1
20260504040700 84 0 1.0 6.0 0.00 0.00 0.00 43 1014.1
20260504040158 85 45 0.0 8.0 0.00 0.00 0.00 43 1014.3
20260504035656 84 45 2.0 9.0 0.00 0.00 0.00 42 1014.3
20260504035154 84 45 5.0 5.0 0.00 0.00 0.00 44 1014.3
20260504034653 84 315 2.0 3.0 0.00 0.00 0.00 45 1014.4
20260504034151 84 11 4.0 5.0 0.00 0.00 0.00 43 1014.4
20260504033648 84 56 5.0 8.0 0.00 0.00 0.00 45 1014.7
20260504033145 84 0 4.0 9.0 0.00 0.00 0.00 44 1014.6
20260504032643 84 101 1.0 7.0 0.00 0.00 0.00 44 1014.5
20260504032140 84 157 3.0 6.0 0.00 0.00 0.00 47 1014.6
20260504031638 84 0 0.0 3.0 0.00 0.00 0.00 47 1014.8
20260504031135 84 292 2.0 4.0 0.00 0.00 0.00 48 1014.9
20260504030633 83 225 4.0 6.0 0.00 0.00 0.00 48 1015.0
20260504030130 83 90 4.0 9.0 0.00 0.00 0.00 46 1015.0
20260504025628 83 135 6.0 9.0 0.00 0.00 0.00 48 1015.2
20260504025126 83 135 6.0 8.0 0.00 0.00 0.00 47 1015.2
20260504024624 83 90 6.0 9.0 0.00 0.00 0.00 46 1015.2
20260504024122 83 0 4.0 9.0 0.00 0.00 0.00 47 1015.4
20260504023621 83 90 8.0 8.0 0.00 0.00 0.00 46 1015.4
20260504023117 83 45 4.0 6.0 0.00 0.00 0.00 48 1015.6
20260504022614 82 270 2.0 5.0 0.00 0.00 0.00 52 1015.8
20260504022112 82 22 2.0 3.0 0.00 0.00 0.00 52 1015.9
20260504021611 82 168 4.0 5.0 0.00 0.00 0.00 53 1016.2
20260504021106 81 292 0.0 3.0 0.00 0.00 0.00 53 1016.3
20260504020605 81 45 1.0 7.0 0.00 0.00 0.00 53 1016.4
20260504020103 81 315 6.0 7.0 0.00 0.00 0.00 53 1016.5
20260504015603 80 22 2.0 6.0 0.00 0.00 0.00 52 1016.5
20260504015059 80 315 4.0 7.0 0.00 0.00 0.00 53 1016.6
20260504014557 80 22 7.0 8.0 0.00 0.00 0.00 53 1016.7
20260504014055 81 45 6.0 8.0 0.00 0.00 0.00 53 1016.8
20260504013551 80 135 7.0 10.0 0.00 0.00 0.00 53 1016.9
20260504013048 80 90 3.0 9.0 0.00 0.00 0.00 53 1016.9
20260504012546 80 90 9.0 9.0 0.00 0.00 0.00 51 1016.8
20260504012043 80 112 4.0 6.0 0.00 0.00 0.00 52 1017.0
20260504011541 79 135 0.0 7.0 0.00 0.00 0.00 55 1017.4
20260504011040 79 135 6.0 9.0 0.00 0.00 0.00 52 1017.3
20260504010537 79 101 9.0 11.0 0.00 0.00 0.00 51 1017.1
20260504010035 78 0 5.0 8.0 0.00 0.00 0.00 58 1017.5
20260504005532 78 67 3.0 7.0 0.00 0.00 0.00 56 1017.5
20260504005030 78 112 6.0 10.0 0.00 0.00 0.00 55 1017.5
20260504004527 78 45 6.0 6.0 0.00 0.00 0.00 59 1017.8
20260504004026 78 45 6.0 7.0 0.00 0.00 0.00 58 1017.8
20260504003524 78 45 3.0 6.0 0.00 0.00 0.00 61 1018.0
20260504003023 77 90 7.0 9.0 0.00 0.00 0.00 58 1017.9
20260504002521 77 67 4.0 5.0 0.00 0.00 0.00 65 1018.2
20260504002016 77 67 7.0 7.0 0.00 0.00 0.00 64 1018.3
20260504001514 76 22 7.0 8.0 0.00 0.00 0.00 65 1018.3
20260504001013 76 135 2.0 4.0 0.00 0.00 0.00 68 1018.4
20260504000510 76 45 6.0 8.0 0.00 0.00 0.00 67 1018.5
20260504000007 75 45 7.0 9.0 0.00 0.00 0.00 69 1018.6
20260503235504 75 33 4.0 8.0 0.00 0.00 0.00 67 1018.5
20260503235002 75 90 1.0 7.0 0.00 0.00 0.00 71 1018.6
20260503234501 74 45 3.0 6.0 0.00 0.00 0.00 71 1018.6
20260503233958 74 90 6.0 6.0 0.00 0.00 0.00 73 1018.6
20260503233455 73 135 2.0 7.0 0.00 0.00 0.00 78 1018.8
20260503232953 72 67 6.0 7.0 0.00 0.00 0.00 78 1018.8
20260503232452 72 45 5.0 7.0 0.00 0.00 0.00 84 1019.1
20260503231949 71 101 4.0 8.0 0.00 0.00 0.00 84 1019.2
20260503231447 71 67 4.0 9.0 0.00 0.00 0.00 85 1019.1
20260503230944 70 90 3.0 6.0 0.00 0.00 0.00 87 1019.3
20260503230443 70 45 5.0 8.0 0.00 0.00 0.00 86 1019.0
20260503225939 70 315 5.0 8.0 0.00 0.00 0.00 89 1019.1
20260503225437 69 90 4.0 6.0 0.00 0.00 0.00 92 1019.2
20260503224936 69 315 4.0 7.0 0.00 0.00 0.00 92 1019.1
20260503224433 69 45 6.0 6.0 0.00 0.00 0.00 94 1019.1
20260503223930 68 315 4.0 5.0 0.00 0.00 0.00 95 1019.3
20260503223428 68 33 3.0 6.0 0.00 0.00 0.00 98 1019.4
20260503222926 68 90 3.0 6.0 0.00 0.00 0.00 99 1019.4
20260503222425 67 45 1.0 5.0 0.00 0.00 0.00 100 1019.4
20260503221921 67 67 3.0 6.0 0.00 0.00 0.00 100 1019.3
20260503221419 67 78 1.0 3.0 0.00 0.00 0.00 100 1019.4
20260503220916 67 45 3.0 5.0 0.00 0.00 0.00 100 1019.5
20260503220414 67 67 3.0 3.0 0.00 0.00 0.00 100 1019.4
20260503215912 66 90 2.0 2.0 0.00 0.00 0.00 100 1019.5
20260503215410 66 90 1.0 1.0 0.00 0.00 0.00 100 1019.6
20260503214908 66 90 1.0 2.0 0.00 0.00 0.00 100 1019.5
20260503214405 66 90 0.0 3.0 0.00 0.00 0.00 100 1019.6
20260503213903 66 33 2.0 3.0 0.00 0.00 0.00 100 1019.7
20260503213401 66 45 1.0 3.0 0.00 0.00 0.00 100 1019.7
20260503212858 65 45 0.0 2.0 0.00 0.00 0.00 100 1019.7
20260503212356 65 0 2.0 2.0 0.00 0.00 0.00 100 1019.5
20260503211853 65 45 1.0 2.0 0.00 0.00 0.00 100 1019.5
20260503211351 65 45 2.0 2.0 0.00 0.00 0.00 100 1019.5
20260503210849 65 90 1.0 1.0 0.00 0.00 0.00 100 1019.6
20260503210349 65 90 1.0 1.0 0.00 0.00 0.00 100 1019.6
20260503205845 65 90 0.0 1.0 0.00 0.00 0.00 100 1019.5
20260503205343 65 135 0.0 0.0 0.00 0.00 0.00 100 1019.4
20260503204840 65 90 0.0 1.0 0.00 0.00 0.00 100 1019.3
20260503204338 65 90 1.0 2.0 0.00 0.00 0.00 100 1019.1
20260503203835 65 135 2.0 2.0 0.00 0.00 0.00 100 1019.0
20260503203333 65 123 2.0 3.0 0.00 0.00 0.00 100 1019.0
20260503202831 65 135 1.0 2.0 0.00 0.00 0.01 100 1019.0
20260503202328 65 135 1.0 1.0 0.00 0.00 0.01 100 1018.9
20260503201828 65 135 1.0 1.0 0.00 0.00 0.01 100 1018.8
20260503201325 65 180 1.0 1.0 0.00 0.00 0.01 100 1018.8
20260503200822 65 270 0.0 0.0 0.00 0.00 0.01 100 1018.8
20260503200320 65 270 0.0 0.0 0.00 0.00 0.01 100 1018.8
20260503195817 65 225 0.0 0.0 0.00 0.00 0.01 100 1018.7
20260503195315 65 180 0.0 0.0 0.00 0.00 0.01 100 1018.7
20260503194813 65 247 0.0 0.0 0.00 0.00 0.01 100 1018.7
20260503194311 65 90 0.0 1.0 0.00 0.00 0.01 100 1018.7
20260503193810 65 45 0.0 1.0 0.00 0.00 0.01 100 1018.6
20260503193308 65 0 0.0 0.0 0.00 0.00 0.01 100 1018.6
20260503192803 65 90 0.0 0.0 0.00 0.00 0.01 100 1018.6
20260503192301 65 45 0.0 0.0 0.00 0.00 0.01 100 1018.7
20260503191759 65 270 0.0 0.0 0.00 0.00 0.01 100 1018.8
20260503191257 65 225 0.0 0.0 0.00 0.00 0.01 100 1018.8
20260503190755 65 180 0.0 0.0 0.00 0.00 0.01 100 1018.7
20260503190252 65 225 0.0 0.0 0.00 0.00 0.01 100 1018.6
20260503185750 65 90 0.0 1.0 0.00 0.00 0.01 100 1018.5
20260503185247 65 180 1.0 2.0 0.00 0.00 0.01 100 1018.5
20260503184745 65 180 0.0 0.0 0.00 0.00 0.01 100 1018.4
20260503184243 65 225 0.0 0.0 0.00 0.00 0.01 100 1018.5
20260503183740 65 180 0.0 0.0 0.00 0.00 0.01 100 1018.4
20260503183238 65 90 0.0 0.0 0.00 0.00 0.01 100 1018.3
20260503182736 65 90 0.0 0.0 0.00 0.00 0.01 100 1018.3
20260503182234 65 270 0.0 0.0 0.00 0.00 0.01 100 1018.2
20260503181732 65 135 0.0 0.0 0.00 0.00 0.01 100 1018.4
20260503181229 65 90 1.0 2.0 0.00 0.00 0.01 100 1018.3
20260503180727 65 270 0.0 0.0 0.00 0.00 0.01 100 1018.2
20260503180224 65 270 0.0 0.0 0.00 0.00 0.01 100 1018.4
20260503175722 65 225 0.0 0.0 0.00 0.00 0.01 100 1018.4
20260503175220 65 225 0.0 0.0 0.00 0.00 0.01 100 1018.2
20260503174718 65 225 0.0 0.0 0.00 0.00 0.01 100 1018.1
20260503174215 65 225 0.0 0.0 0.00 0.00 0.01 100 1018.1
20260503173713 65 225 0.0 0.0 0.00 0.00 0.01 100 1018.2
20260503173211 65 225 0.0 0.0 0.00 0.00 0.01 100 1018.3
20260503172709 65 225 0.0 0.0 0.00 0.00 0.01 100 1018.2
20260503172207 66 135 0.0 0.0 0.00 0.00 0.01 100 1018.1
20260503171704 66 90 0.0 0.0 0.00 0.00 0.00 100 1018.2
20260503171201 66 270 0.0 0.0 0.00 0.00 0.00 100 1018.3
20260503170659 66 315 0.0 0.0 0.00 0.00 0.00 100 1018.2
20260503170157 66 225 0.0 0.0 0.00 0.00 0.00 100 1018.3
20260503160130 67 45 0.0 0.0 0.00 0.00 0.00 100 1018.9
20260503150605 67 0 0.0 1.0 0.00 0.00 0.00 100 1019.2
20260503131012 69 0 4.0 4.0 0.00 0.00 0.00 100 1020.0
20260503130510 69 315 2.0 3.0 0.00 0.00 0.00 100 1019.9
20260503110412 69 315 1.0 2.0 0.00 0.00 0.00 97 1019.6
20260503090317 70 281 2.0 3.0 0.00 0.00 0.00 94 1018.8
20260503081257 71 303 3.0 3.0 0.00 0.00 0.00 90 1018.4
20260503080752 71 0 1.0 3.0 0.00 0.00 0.00 90 1018.4
20260503080249 71 315 2.0 4.0 0.00 0.00 0.00 90 1018.4
20260503072733 72 315 1.0 2.0 0.00 0.00 0.00 88 1018.0
20260503072231 72 315 1.0 1.0 0.00 0.00 0.00 88 1017.8
20260503071729 72 292 1.0 3.0 0.00 0.00 0.00 88 1017.8
20260503071226 72 315 1.0 2.0 0.00 0.00 0.00 88 1017.8
20260503070724 72 315 0.0 2.0 0.00 0.00 0.00 87 1017.7
20260503070221 72 315 1.0 4.0 0.00 0.00 0.00 88 1017.7